Weather History for Grants-Milan, NM

Change the Weather History Date:

Monday, February 4, 2013

  Actual Average Record
Temperature  
Mean Temperature 36 °F -  
Max Temperature 56 °F 46 °F 65 °F (1963)
Min Temperature 17 °F 16 °F -11 °F (1956)
Degree Days  
Heating Degree Days 28    
Moisture  
Dew Point 20 °F    
Average Humidity 58    
Maximum Humidity 96    
Minimum Humidity 15    
Precipitation  
Precipitation 0.00 in - - ()
Sea Level Pressure  
Sea Level Pressure 30.12 in    
Wind  
Wind Speed 5 mph (NNW)    
Max Wind Speed 12 mph    
Max Gust Speed 21 mph    
Visibility 10 miles    
Events      
Averages and records for this station are not official NWS values.
T = Trace of Precipitation, MM = Missing Value Source: NWS Daily Summary

Daily Weather History Graph

Daily Weather History Graph

Search for Another Location

Airport:

Trip Planner

Search our weather history database for the weather conditions in past years. The results will help you decide how hot, cold, wet, or windy it might be!

Date:

Astronomy

Feb. 04, 2013 Rise Set
Actual Time 7:08 AM MST 5:43 PM MST
Civil Twilight 6:41 AM MST 6:10 PM MST
Nautical Twilight 6:11 AM MST 6:40 PM MST
Astronomical Twilight 5:41 AM MST 7:09 PM MST
Moon 1:44 AM MST (2/4) 12:13 PM MST (2/4)
Length of Visible Light 11h 28m
Length of Day
10h 35m
Last Quarter, 36% of the Moon is Illuminated
Feb 4
Last Quarter
Feb 10
New
Feb 17
First Quarter
Feb 25
Full
Mar 4
Last Quarter

Hourly Weather History & Observations

Time (MST) Temp. Windchill Dew Point Humidity Pressure Visibility Wind Dir Wind Speed Gust Speed Precip Events Conditions
12:15 AM 33.1 °F 28.7 °F 26.2 °F 76% 30.09 in 10.0 mi NW 4.6 mph - N/A   Mostly Cloudy
12:35 AM 31.1 °F 26.4 °F 25.5 °F 80% 30.09 in 10.0 mi WNW 4.6 mph - N/A   Scattered Clouds
12:55 AM 31.1 °F 26.4 °F 25.9 °F 81% 30.09 in 10.0 mi WNW 4.6 mph - N/A   Clear
1:15 AM 31.5 °F 24.9 °F 26.1 °F 80% 30.09 in 10.0 mi NW 6.9 mph - N/A   Clear
1:35 AM 30.0 °F 24.1 °F 25.0 °F 82% 30.09 in 10.0 mi NW 5.8 mph - N/A   Clear
1:55 AM 30.7 °F 21.4 °F 25.3 °F 80% 30.10 in 10.0 mi NW 11.5 mph 16.1 mph N/A   Clear
2:15 AM 31.3 °F 23.9 °F 25.9 °F 80% 30.10 in 10.0 mi WNW 8.1 mph 16.1 mph N/A   Mostly Cloudy
3:55 AM 27.0 °F 18.0 °F 24.6 °F 91% 30.10 in 10.0 mi NNW 9.2 mph - N/A   Clear
4:15 AM 27.1 °F 17.5 °F 24.6 °F 90% 30.10 in 10.0 mi NNW 10.4 mph - N/A   Clear
4:35 AM 27.0 °F 19.5 °F 24.8 °F 92% 30.10 in 10.0 mi North 6.9 mph - N/A   Clear
4:55 AM 27.5 °F - 25.3 °F 92% 30.12 in 10.0 mi Calm Calm - N/A   Clear
5:15 AM 25.2 °F - 23.2 °F 92% 30.12 in 10.0 mi Calm Calm - N/A   Clear
5:35 AM 24.1 °F 19.7 °F 22.8 °F 95% 30.12 in 10.0 mi NW 3.5 mph - N/A   Clear
5:55 AM 23.9 °F 19.5 °F 22.5 °F 94% 30.12 in 10.0 mi NW 3.5 mph - N/A   Clear
6:15 AM 24.1 °F 18.2 °F 23.0 °F 96% 30.13 in 10.0 mi North 4.6 mph - N/A   Clear
6:35 AM 22.1 °F - 20.8 °F 95% 30.13 in 10.0 mi Calm Calm - N/A   Clear
6:55 AM 18.0 °F - 16.7 °F 95% 30.14 in 10.0 mi Calm Calm - N/A   Clear
7:15 AM 17.2 °F - 15.8 °F 94% 30.15 in 10.0 mi Calm Calm - N/A   Clear
7:35 AM 18.7 °F 13.5 °F 17.4 °F 95% 30.15 in 10.0 mi NW 3.5 mph - N/A   Clear
7:55 AM 25.9 °F - 25.0 °F 96% 30.16 in 10.0 mi Calm Calm - N/A   Clear
8:15 AM 29.1 °F 24.1 °F 27.1 °F 92% 30.16 in 10.0 mi NW 4.6 mph - N/A   Clear
8:35 AM 31.6 °F - 28.0 °F 87% 30.16 in 10.0 mi Calm Calm - N/A   Clear
8:55 AM 34.3 °F - 29.3 °F 82% 30.16 in 10.0 mi Calm Calm - N/A   Clear
9:15 AM 37.0 °F 33.3 °F 29.5 °F 74% 30.16 in 10.0 mi North 4.6 mph - N/A   Clear
9:35 AM 38.3 °F 34.8 °F 29.1 °F 70% 30.16 in 10.0 mi North 4.6 mph - N/A   Clear
9:55 AM 39.9 °F 37.8 °F 29.3 °F 66% 30.16 in 10.0 mi North 3.5 mph - N/A   Clear
10:15 AM 41.5 °F 38.6 °F 29.3 °F 62% 30.16 in 10.0 mi North 4.6 mph - N/A   Clear
10:35 AM 43.3 °F 39.2 °F 28.6 °F 56% 30.16 in 10.0 mi North 6.9 mph 17.3 mph N/A   Clear
10:55 AM 45.0 °F 40.1 °F 27.1 °F 50% 30.16 in 10.0 mi North 9.2 mph - N/A   Clear
11:15 AM 45.5 °F 41.8 °F 26.4 °F 47% 30.16 in 10.0 mi NW 6.9 mph - N/A   Clear
11:35 AM 47.5 °F - 24.1 °F 40% 30.16 in 10.0 mi North 8.1 mph - N/A   Clear
11:55 AM 48.2 °F - 22.3 °F 36% 30.15 in 10.0 mi NNW 5.8 mph - N/A   Clear
12:15 PM 49.5 °F - 22.3 °F 34% 30.14 in 10.0 mi NW 5.8 mph - N/A   Clear
12:35 PM 50.0 °F - 21.4 °F 32% 30.13 in 10.0 mi NW 6.9 mph - N/A   Clear
12:55 PM 51.6 °F - 21.2 °F 30% 30.12 in 10.0 mi NW 8.1 mph - N/A   Clear
1:15 PM 52.3 °F - 19.8 °F 28% 30.12 in 10.0 mi North 8.1 mph - N/A   Clear
1:35 PM 53.4 °F - 16.5 °F 23% 30.11 in 10.0 mi NNW 8.1 mph 20.7 mph N/A   Clear
1:55 PM 53.8 °F - 14.0 °F 21% 30.10 in 10.0 mi North 10.4 mph - N/A   Clear
2:15 PM 54.5 °F - 12.0 °F 19% 30.09 in 10.0 mi NW 8.1 mph 16.1 mph N/A   Clear
2:35 PM 54.9 °F - 13.5 °F 19% 30.09 in 10.0 mi NNW 10.4 mph - N/A   Clear
2:55 PM 55.0 °F - 14.5 °F 20% 30.08 in 10.0 mi North 6.9 mph - N/A   Clear
3:15 PM 55.9 °F - 11.8 °F 17% 30.08 in 10.0 mi North 10.4 mph - N/A   Clear
3:35 PM 55.8 °F - 12.7 °F 18% 30.07 in 10.0 mi North 5.8 mph - N/A   Clear
3:55 PM 56.1 °F - 9.1 °F 15% 30.07 in 10.0 mi North 8.1 mph - N/A   Clear
4:15 PM 55.6 °F - 10.6 °F 17% 30.07 in 10.0 mi NNW 10.4 mph - N/A   Clear
4:35 PM 55.0 °F - 11.8 °F 18% 30.07 in 10.0 mi NNW 11.5 mph 17.3 mph N/A   Clear
4:55 PM 54.1 °F - 10.8 °F 18% 30.07 in 10.0 mi NW 10.4 mph - N/A   Clear
5:15 PM 52.5 °F - 11.1 °F 19% 30.07 in 10.0 mi NNW 8.1 mph - N/A   Clear
5:35 PM 48.0 °F - 10.9 °F 22% 30.07 in 10.0 mi North 6.9 mph - N/A   Clear
5:55 PM 45.7 °F 42.7 °F 11.1 °F 25% 30.08 in 10.0 mi NNW 5.8 mph - N/A   Clear
6:15 PM 40.8 °F 35.6 °F 10.8 °F 29% 30.09 in 10.0 mi NW 8.1 mph - N/A   Clear
6:35 PM 38.8 °F 32.6 °F 10.9 °F 32% 30.10 in 10.0 mi NW 9.2 mph - N/A   Clear
6:55 PM 36.5 °F 33.9 °F 12.0 °F 37% 30.12 in 10.0 mi NNW 3.5 mph - N/A   Clear
7:15 PM 33.8 °F - 13.1 °F 43% 30.12 in 10.0 mi Calm Calm - N/A   Clear
7:35 PM 34.0 °F - 14.4 °F 45% 30.12 in 10.0 mi Calm Calm - N/A   Clear
7:55 PM 29.8 °F - 14.7 °F 53% 30.12 in 10.0 mi Calm Calm - N/A   Clear
8:15 PM 32.7 °F - 17.1 °F 53% 30.13 in 10.0 mi Calm Calm - N/A   Clear
8:35 PM 29.3 °F 25.6 °F 15.6 °F 57% 30.13 in 10.0 mi NW 3.5 mph - N/A   Clear
8:55 PM 25.3 °F 16.7 °F 13.3 °F 60% 30.14 in 10.0 mi NW 8.1 mph - N/A   Clear
9:15 PM 30.4 °F 24.5 °F 17.4 °F 59% 30.14 in 10.0 mi NW 5.8 mph - N/A   Clear
9:35 PM 32.0 °F - 19.2 °F 59% 30.14 in 10.0 mi Calm Calm - N/A   Clear
9:55 PM 27.3 °F - 17.1 °F 65% 30.14 in 10.0 mi Calm Calm - N/A   Clear
10:15 PM 29.7 °F 26.1 °F 18.5 °F 63% 30.13 in 10.0 mi WSW 3.5 mph - N/A   Clear
10:35 PM 26.6 °F - 18.1 °F 70% 30.12 in 10.0 mi Calm Calm - N/A   Clear
10:55 PM 24.3 °F 18.4 °F 16.7 °F 73% 30.12 in 10.0 mi NNW 4.6 mph - N/A   Clear
11:15 PM 24.8 °F 19.1 °F 17.2 °F 73% 30.13 in 10.0 mi NNW 4.6 mph - N/A   Clear
11:35 PM 25.7 °F 21.5 °F 19.0 °F 76% 30.13 in 10.0 mi NW 3.5 mph - N/A   Clear
11:55 PM 19.8 °F 10.8 °F 14.7 °F 81% 30.14 in 10.0 mi NW 6.9 mph - N/A   Clear